Regional Weather Roundup
Issued by NWS

Home | Current Version | Previous Version | Text Only | Print | Product List | Glossary Off
Versions: 1 2 3 4 5 6 7 8 9 10 11 12 13 14 15 16 17 18 19 20 21 22 23 24 25 26 27 28 29 30 31 32 33 34 35 36 37 38 39 40 41 42 43 44 45 46 47 48 49 50

000
ASUS43 KTOP 051059
RWRKS

WEATHER ROUNDUP FOR KANSAS
NATIONAL WEATHER SERVICE GOODLAND KS
600 AM CDT TUE MAY 05 2015

NOTE:  "FAIR" INDICATES FEW OR NO CLOUDS BELOW 12,000 FEET WITH NO
SIGNIFICANT WEATHER AND/OR OBSTRUCTIONS TO VISIBILITY.

KSZ001>006-013>018-027>032-041>047-051200-
NORTHWEST KANSAS

CITY           SKY/WX    TMP DP  RH WIND       PRES   REMARKS
GOODLAND       FOG       52  51  97 E7        30.02F VSB 3/4
HAYS           CLOUDY    57  52  82 SE12      30.01S
HILL CITY      CLOUDY    59  57  93 SE3       30.02S FOG
RUSSELL        CLOUDY    59  59 100 SE13      29.99F
$$

KSZ061>065-074>080-084>089-051200-
SOUTHWEST KANSAS

CITY           SKY/WX    TMP DP  RH WIND       PRES   REMARKS
DODGE CITY     CLOUDY    59  57  93 E9        29.98F FOG
ELKHART          N/A     56  52  87 E8          N/A
GARDEN CITY    LGT RAIN  57  57 100 E9        29.97F
GREAT BEND     CLOUDY    61  55  82 SE12      30.01S
LIBERAL        CLOUDY    61  55  82 S7        29.96F
$$

KSZ066>073-081>083-090>101-051200-
SOUTHEAST KANSAS

CITY           SKY/WX    TMP DP  RH WIND       PRES   REMARKS
CHANUTE        FAIR      59  55  87 SE7       30.08S
COFFEYVILLE    PTCLDY    59  55  87 SE5       30.07F
HUTCHINSON     CLOUDY    61  55  81 SE6       30.02S
MEDICINE LODGE   N/A     61  56  83 E7        30.00S
NEWTON         MOCLDY    57  50  77 SE7       30.06R
PARSONS        PTCLDY    62  56  80 SE6       30.09S
WICHITA INTL   MOCLDY    63  54  72 SE8       30.03S
WICHITA JABRA  MOCLDY    60  54  80 S8        30.04S
WINFIELD       CLOUDY    62  54  74 SE8       30.06R
$$

KSZ007>012-019>026-033>040-048>060-102>105-051200-
NORTHEAST KANSAS

CITY           SKY/WX    TMP DP  RH WIND       PRES   REMARKS
CONCORDIA      MOCLDY    58  57  97 SE6       30.03S
EMPORIA        CLOUDY    60  57  89 SE9       30.06R
LAWRENCE       PTCLDY    60  58  92 SE5       30.08R
MANHATTAN      CLOUDY    61  57  87 E3        30.04S
OLATHE IND     MOCLDY    61  58  90 SE7       30.09S
OLATHE EXE     MOCLDY    60  59  96 SE5       30.08S
SALINA         MOCLDY    60  56  86 SE7       30.03F
TOPEKA BILLARD CLEAR     59  58  96 CALM      30.07R
TOPEKA FORBES  PTCLDY    60  58  92 SE5       30.06S
$$



USA.gov is the U.S. government's official web portal to all federal, state and local government web resources and services.